SV1BYK-4 Weather Reports


Display with metric or nautical units.
time (UTC)temp
F
wind
direction
speed
MPH
gust
MPH
rain 1hr
in
rain 24hr
in
rain mn
in
humidity
%
barometer
mb
20260505204538 65 270 0.0 2.0 0.00 0.00 0.00 55 1017.4
20260505203638 65 270 2.0 2.0 0.00 0.00 0.00 55 1017.5
20260505201838 65 270 0.0 2.0 0.00 0.00 0.00 54 1017.5
20260505200938 65 270 2.0 2.0 0.00 0.00 0.00 54 1017.5
20260505200038 65 270 1.0 2.0 0.00 0.00 0.00 54 1017.5
20260505195138 65 270 0.0 2.0 0.00 0.00 0.00 55 1017.5
20260505194238 66 270 2.0 2.0 0.00 0.00 0.00 54 1017.5
20260505193338 66 272 0.0 4.0 0.00 0.00 0.00 55 1017.5
20260505191538 66 270 0.0 2.0 0.00 0.00 0.00 55 1017.5
20260505190638 66 270 0.0 4.0 0.00 0.00 0.00 54 1017.4
20260505185738 66 264 1.0 4.0 0.00 0.00 0.00 54 1017.4
20260505184838 66 261 0.0 4.0 0.00 0.00 0.00 54 1017.2
20260505183938 67 259 2.0 4.0 0.00 0.00 0.00 53 1017.1
20260505183038 67 257 1.0 4.0 0.00 0.00 0.00 53 1017.2
20260505182137 67 271 2.0 4.0 0.00 0.00 0.00 53 1017.0
20260505180338 67 261 3.0 7.0 0.00 0.00 0.00 52 1017.0
20260505175438 67 263 2.0 8.0 0.00 0.00 0.00 53 1016.9
20260505174538 67 261 6.0 8.0 0.00 0.00 0.00 53 1016.9
20260505173638 68 258 2.0 8.0 0.00 0.00 0.00 53 1016.8
20260505172738 68 264 3.0 4.0 0.00 0.00 0.00 51 1016.8
20260505171838 69 276 3.0 7.0 0.00 0.00 0.00 52 1016.8
20260505165137 72 265 2.0 7.0 0.00 0.00 0.00 44 1016.8
20260505164238 72 270 4.0 7.0 0.00 0.00 0.00 46 1016.8
20260505163337 72 270 4.0 8.0 0.00 0.00 0.00 45 1016.8
20260505160638 74 265 6.0 9.0 0.00 0.00 0.00 39 1016.7
20260505153038 77 193 2.0 4.0 0.00 0.00 0.00 31 1016.6
20260505152137 77 263 1.0 7.0 0.00 0.00 0.00 32 1016.7
20260505150338 75 222 2.0 4.0 0.00 0.00 0.00 33 1016.8
20260505124838 79 152 2.0 11.0 0.00 0.00 0.00 27 1017.7
20260505123938 78 117 3.0 11.0 0.00 0.00 0.00 27 1017.8
20260505123037 76 117 7.0 11.0 0.00 0.00 0.00 28 1017.8
20260505122137 77 106 4.0 11.0 0.00 0.00 0.00 27 1017.9
20260505121238 77 147 4.0 13.0 0.00 0.00 0.00 28 1018.0
20260505115438 76 107 6.0 11.0 0.00 0.00 0.00 28 1018.0
20260505114537 77 133 4.0 13.0 0.00 0.00 0.00 29 1018.2
20260505113638 77 113 4.0 9.0 0.00 0.00 0.00 31 1018.3
20260505111838 76 223 6.0 16.0 0.00 0.00 0.00 33 1018.5
20260505101537 76 273 5.0 11.0 0.00 0.00 0.00 32 1019.1
20260505100637 75 275 3.0 8.0 0.00 0.00 0.00 33 1019.2
20260505095737 74 282 7.0 11.0 0.00 0.00 0.00 34 1019.3
20260505094837 74 272 5.0 11.0 0.00 0.00 0.00 33 1019.4
20260505093937 73 286 10.0 13.0 0.00 0.00 0.00 35 1019.6
20260505093038 73 273 8.0 13.0 0.00 0.00 0.00 35 1019.6
20260505092137 74 267 2.0 11.0 0.00 0.00 0.00 39 1019.8
20260505091237 74 269 3.0 11.0 0.00 0.00 0.00 38 1019.8
20260505090337 73 286 4.0 14.0 0.00 0.00 0.00 40 1019.9
20260505085438 73 286 5.0 13.0 0.00 0.00 0.00 36 1019.9
20260505084537 74 104 2.0 7.0 0.00 0.00 0.00 36 1019.9
20260505083638 74 104 2.0 6.0 0.00 0.00 0.00 37 1020.1
20260505082738 73 113 3.0 9.0 0.00 0.00 0.00 37 1020.2
20260505081837 73 109 2.0 4.0 0.00 0.00 0.00 37 1020.2
20260505080038 72 234 2.0 6.0 0.00 0.00 0.00 37 1020.3
20260505075137 70 111 2.0 6.0 0.00 0.00 0.00 39 1020.4
20260505074237 72 127 2.0 4.0 0.00 0.00 0.00 37 1020.4
20260505073337 71 100 2.0 4.0 0.00 0.00 0.00 39 1020.5
20260505072438 70 166 2.0 4.0 0.00 0.00 0.00 41 1020.5
20260505071537 70 178 2.0 4.0 0.00 0.00 0.00 43 1020.5
20260505070638 69 162 2.0 2.0 0.00 0.00 0.00 44 1020.5
20260505065737 68 262 1.0 2.0 0.00 0.00 0.00 45 1020.4
20260505064837 67 270 0.0 2.0 0.00 0.00 0.00 47 1020.4
20260505063937 66 270 1.0 2.0 0.00 0.00 0.00 47 1020.5
20260505063038 67 274 1.0 2.0 0.00 0.00 0.00 48 1020.3
20260505062138 65 287 1.0 4.0 0.00 0.00 0.00 50 1020.4
20260505061237 62 290 2.0 4.0 0.00 0.00 0.00 53 1020.4
20260505055438 63 270 0.0 2.0 0.00 0.00 0.00 55 1020.5
20260505054537 62 270 0.0 2.0 0.00 0.00 0.00 58 1020.4
20260505053637 61 270 0.0 2.0 0.00 0.00 0.00 59 1020.4
20260505052737 61 270 0.0 2.0 0.00 0.00 0.00 59 1020.5
20260505051837 59 270 0.0 2.0 0.00 0.00 0.00 63 1020.5
20260505050938 57 270 0.0 2.0 0.00 0.00 0.00 66 1020.3
20260505041537 53 270 0.0 2.0 0.00 0.00 0.00 71 1020.2
20260505040637 52 270 0.0 2.0 0.00 0.00 0.00 71 1020.2
20260505035738 52 270 0.0 2.0 0.00 0.00 0.00 71 1020.2
20260505034837 52 278 0.0 2.0 0.00 0.00 0.00 71 1020.2
20260505033937 52 292 1.0 2.0 0.00 0.00 0.00 71 1020.2
20260505033037 51 292 0.0 2.0 0.00 0.00 0.00 71 1020.1
20260505032137 52 292 0.0 2.0 0.00 0.00 0.00 70 1020.2
20260505031237 52 292 0.0 2.0 0.00 0.00 0.00 70 1020.2
20260505030337 52 292 0.0 2.0 0.00 0.00 0.00 69 1020.3
20260505024537 52 292 0.0 2.0 0.00 0.00 0.00 69 1020.1
20260505023637 52 292 0.0 2.0 0.00 0.00 0.00 69 1020.2
20260505022737 52 0 0.0 0.0 0.00 0.00 0.00 69 1020.3
20260505021837 52 292 0.0 2.0 0.00 0.00 0.00 69 1020.3
20260505020037 52 292 0.0 2.0 0.00 0.00 0.00 69 1020.2
20260505015137 52 292 0.0 2.0 0.00 0.00 0.00 70 1020.4
20260505014237 52 292 0.0 2.0 0.00 0.00 0.00 70 1020.4
20260505013337 53 292 0.0 2.0 0.00 0.00 0.00 69 1020.4
20260505011537 53 292 0.0 2.0 0.00 0.00 0.00 70 1020.4
20260505005737 53 292 0.0 2.0 0.00 0.00 0.00 69 1020.5
20260505004837 53 292 0.0 2.0 0.00 0.00 0.00 69 1020.5
20260505003937 53 292 1.0 2.0 0.00 0.00 0.00 69 1020.6
20260505002137 53 292 0.0 2.0 0.00 0.00 0.00 68 1020.6
20260505001237 54 292 0.0 2.0 0.00 0.00 0.00 67 1020.7
20260505000337 53 292 0.0 2.0 0.00 0.00 0.00 66 1020.8
20260504235437 54 292 0.0 2.0 0.00 0.00 0.00 66 1020.9
20260504234537 54 292 1.0 2.0 0.00 0.00 0.00 66 1020.9
20260504233637 54 292 1.0 2.0 0.00 0.00 0.00 67 1021.0
20260504232737 53 292 0.0 2.0 0.00 0.00 0.00 67 1021.0
20260504231837 54 292 0.0 2.0 0.00 0.00 0.00 67 1021.1
20260504230937 54 0 0.0 0.0 0.00 0.00 0.00 66 1021.2
20260504230037 54 292 0.0 2.0 0.00 0.00 0.00 65 1021.3
20260504225137 55 292 0.0 2.0 0.00 0.00 0.00 65 1021.3
20260504224237 55 292 1.0 2.0 0.00 0.00 0.00 66 1021.4
20260504223337 55 0 0.0 0.0 0.00 0.00 0.00 66 1021.4
20260504222437 55 292 0.0 2.0 0.00 0.00 0.00 66 1021.5
20260504221538 55 292 0.0 2.0 0.00 0.00 0.00 66 1021.5
20260504220637 55 292 0.0 2.0 0.00 0.00 0.00 69 1021.5
20260504215737 56 292 0.0 2.0 0.00 0.00 0.00 70 1021.6
20260504214837 57 292 0.0 2.0 0.00 0.00 0.00 70 1021.7
20260504213937 57 292 0.0 2.0 0.00 0.00 0.00 69 1021.7
20260504213037 58 292 1.0 2.0 0.00 0.00 0.00 68 1021.6
20260504211237 58 292 2.0 2.0 0.00 0.00 0.00 67 1021.6
20260504210337 58 282 2.0 4.0 0.00 0.00 0.00 67 1021.6
20260504205437 59 272 2.0 4.0 0.00 0.00 0.00 67 1021.7